This demonstration page uses our WeatherBlox Daily Observations layout. Learn more.

Left ArrowRight Arrow

Hourly Observations for June 20, 2016

Temp ( °F °C ) Dew Point ( °F °C ) Humidity (%) Winds ( mph kmh ) Pressure ( in mb ) Visibility ( mi km ) Precip ( " mm )
12:52 am 00:52 Clear 75 23.9 69 20.6 82 82 S 9 15 30.16 1022 10 16 0.00 0.00
1:52 am 01:52 Clear 75 23.9 69 20.6 82 82 SSE 8 13 30.16 1021 10 16 0.00 0.00
2:52 am 02:52 Clear 74 23.3 69 20.6 85 85 SSE 8 13 30.16 1021 10 16 0.00 0.00
3:52 am 03:52 Clear 73 22.8 69 20.6 87 87 S 8 13 30.16 1021 10 16 0.00 0.00
4:52 am 04:52 Clear 73 22.8 69 20.6 87 87 SSE 9 15 30.16 1022 10 16 0.00 0.00
5:52 am 05:52 Clear 73 22.8 69 20.6 87 87 SSE 8 13 30.18 1022 10 16 0.00 0.00
6:52 am 06:52 Sunny 73 22.8 69 20.6 87 87 S 7 11 30.19 1022 10 16 0.00 0.00
7:52 am 07:52 Sunny 76 24.4 70 21.1 82 82 S 13 20 30.21 1023 10 16 0.00 0.00
8:52 am 08:52 Sunny 79 26.1 71 21.7 77 77 SSW 8 13 30.21 1023 10 16 0.00 0.00
9:52 am 09:52 Sunny 83 28.3 70 21.1 65 65 WSW 9 15 30.21 1023 10 16 0.00 0.00
10:52 am 10:52 Sunny 85 29.4 69 20.6 59 59 W 6 9 30.21 1023 10 16 0.00 0.00
11:52 am 11:52 Mostly Sunny 87 30.6 67 19.4 51 51 W 5 7 30.20 1023 10 16 0.00 0.00
12:52 pm 12:52 Sunny 89 31.7 66 18.9 47 47 W 7 11 30.19 1022 10 16 0.00 0.00
1:52 pm 13:52 Mostly Sunny 89 31.7 65 18.3 45 45 VRB 5 7 30.17 1022 10 16 0.00 0.00
2:52 pm 14:52 Mostly Sunny 91 32.8 64 17.8 41 41 SW 6 9 30.16 1021 10 16 0.00 0.00
3:52 pm 15:52 Sunny 91 32.8 63 17.2 39 39 VRB 3 6 30.14 1021 10 16 0.00 0.00
4:52 pm 16:52 Mostly Sunny 92 33.3 62 16.7 37 37 WSW 8 13 30.12 1020 10 16 0.00 0.00
5:00 pm 17:00 Mostly Sunny 91 33 61 16 36 36 W 6 9 30.06 1018 10 16 0.00 0.00
5:52 pm 17:52 Sunny 91 32.8 62 16.7 38 38 W 6 9 30.10 1019 10 16 0.00 0.00
6:52 pm 18:52 Sunny 90 32.2 63 17.2 41 41 W 7 11 30.08 1019 10 16 0.00 0.00
7:52 pm 19:52 Sunny 86 30 64 17.8 48 48 WNW 5 7 30.10 1019 10 16 0.00 0.00
8:52 pm 20:52 Clear 81 27.2 67 19.4 62 62 WSW 5 7 30.11 1020 10 16 0.00 0.00
9:52 pm 21:52 Clear 79 26.1 67 19.4 67 67 Calm 30.13 1020 10 16 0.00 0.00
10:52 pm 22:52 Clear 79 26.1 66 18.9 65 65 Calm 30.15 1021 10 16 0.00 0.00
11:52 pm 23:52 Clear 76 24.4 67 19.4 74 74 SSE 6 9 30.13 1020 10 16 0.00 0.00

Powered by AerisWeather